Location: Lancaster
(34.6980°N, 118.1360°W)
Time: 05:07:20
(UTC-08:00)

ISS - Pass Details

Date: 16 November 2017
Orbit: 402 x 407 km, 51.6° (Epoch: 23 November)

Event Time Altitude Azimuth Distance (km) Brightness Sun altitude
Exits shadow 05:54:06 - 310° (NW) 1,592 -1.4 -7.3°
Reaches altitude 10° 05:54:26 10° 310° (NW) 1,452 -1.6 -7.3°
Maximum altitude 05:57:41 76° 224° (SW) 415 -3.8 -6.6°
Drops below altitude 10° 06:00:55 10° 138° (SE) 1,444 0.1 -6.0°
Sets 06:02:59 0° 137° (SE) 2,300 1.3 -5.6°
